Location: Unspecified
(35.6961°N, 0.0000°E)
Time: 21:07:26
(UTC+00:00)

SO-50 - Visible Passes

Search period start: 17 June 2019 00:00
Search period end: 27 June 2019 00:00
Orbit: 586 x 700 km, 64.6° (Epoch: 16 June)

Date Brightness Start Highest point End Pass type
(mag) Time Alt. Az. Time Alt. Az. Time Alt. Az.
17 Jun ? 19:46:22 10° NNW 19:50:59 41° NE 19:55:26 10° SE visible
17 Jun ? 21:27:41 10° WNW 21:31:05 20° WSW 21:33:19 14° SW visible
18 Jun ? 20:11:17 10° NNW 20:16:08 79° WSW 20:20:25 12° SSE visible
19 Jun ? 20:36:52 10° NW 20:41:01 30° WSW 20:45:03 10° S visible
20 Jun ? 21:04:21 10° W 21:05:40 11° WSW 21:06:58 10° WSW visible
21 Jun ? 19:46:18 10° NW 19:50:54 45° WSW 19:55:20 10° S visible
22 Jun ? 20:12:31 10° WNW 20:15:39 18° WSW 20:18:43 10° SSW visible
